STARLINK-6312, 56536

Orbit data source: Space-Track

STARLINK-6312, 56536 is a payload satellite owned by SpaceX/Seattle (US) in LEO that was launched on Sun, 14 May 2023 UTC via an FALCON 9 launch vehicle from the Air Force Eastern Test Range (AFETR). Payload-class satellites include a variety of spacecraft equipped with specific instruments for various scientific and technological missions. These include communications satellites like Starlink; space stations such as the ISS; scientific satellites like the Hubble; Earth observation satellites from companies like Planet Labs, Umbra, and HawkEye 360; GPS; miniature CubeSats for education and research; and military/defense satellites.

Loading next visibility...
Identifier
56536, 2023-065AK
Orbit
LEO
Country
Flag of USUS
Related business
Manufacturer
SpaceX/Seattle
Mission
Operational Commercial Communications
Bus & Motor
STARLINK, Unknown motor
Mass
305 kg wet, ~290 kg dry
Launch date (UTC)
2023-05-14 (3 years ago)
Launch vehicle
FALCON 9
Launch site
Air Force Eastern Test Range (AFETR)
Object type
Payload
Rocket body
Debris
Shape & HBR
Box + 1 Pan, 10.1 m
Radar Cross Section
11.087 m², Large (>1 m²)

Expand to show TLE details & history
Last TLE update: 3 days ago

TLE from 3 days ago
0 STARLINK-6312
1 56536U 23065AK  26170.62383876 -.00000036  00000-0  82122-5 0  9990
2 56536  43.0046  11.1588 0001132 243.7968 116.2768 15.27576282172022
Epoch: 2026-06-19T14:58Z
TLE epoch observation values (Epoch: 2026-06-19T14:58:19.668Z)
Latitude
0.00001°
Longitude
-121.27329°
Altitude
483.18 km
Speed
7.625 km/s
True Right ascension
00h 44m 38s
True Declination
0° 00' 00"
Sunlit
Object was in daylight at epoch
Visualization orbit readout
Latitude
Unknown
Longitude
Unknown
Altitude
Unknown
Speed
Unknown
Apparent Right ascension
Unknown
Apparent Declination
Unknown
Sunlit
N/A
Visualization observer readout
Local Sidereal Time
21:25:13
Azimuth
Unknown
Elevation
Unknown
Doppler factor
Unknown
Orbital elements
Apogee altitude
485.782 km
Perigee altitude
484.228 km
Semi-major axis
6,863.142 km
Eccentricity
0.00011
Inclination
43.0046°
RAAN
11.1588°
Arg. of periapsis
243.7968°
True anomaly
116.28843°
Mean anomaly
116.2768°
Eccentric anomaly
116.28262°
Mean motion
3.81732 °/min
Orbital period
94.31 mins
BSTAR
0.0000082122
Loading maneuver chart data...
Computing Atmospheric mass density...
Loading historical data...
Loading historical data...
Loading historical data...
Loading historical data...
Loading historical data...
Loading historical data...
Loading historical data...

Documentation

Showing up to 5 results
|